Time,TemperatureF,DewpointF,PressureIn,WindDirection,WindDirectionDegrees,WindSpeedMPH,WindSpeedGustMPH,Humidity,HourlyPrecipIn,Conditions,Clouds,dailyrainin,SoftwareType,DateUTC
2013-11-13 00:01:00,19.6,16.7,30.55,WNW,294,0.0,4.2,88,0.00,,CLR,0.00,VWS V14.00,2013-11-13 06:01:00,
2013-11-13 00:06:00,19.6,16.5,30.55,WNW,294,0.0,3.4,88,0.00,,CLR,0.00,VWS V14.00,2013-11-13 06:06:00,
2013-11-13 00:11:00,19.5,16.5,30.54,WNW,295,0.0,2.9,88,0.00,,CLR,0.00,VWS V14.00,2013-11-13 06:11:00,
2013-11-13 00:16:00,19.4,16.5,30.54,WNW,295,0.0,2.9,88,0.00,,CLR,0.00,VWS V14.00,2013-11-13 06:16:00,
2013-11-13 00:21:00,19.2,16.4,30.54,WNW,294,0.0,0.0,88,0.00,,CLR,0.00,VWS V14.00,2013-11-13 06:21:00,
2013-11-13 00:26:00,19.3,16.6,30.54,WNW,294,0.0,0.0,89,0.00,,CLR,0.00,VWS V14.00,2013-11-13 06:26:00,
2013-11-13 00:31:00,19.0,16.4,30.54,WNW,295,0.0,2.4,90,0.00,,CLR,0.00,VWS V14.00,2013-11-13 06:31:00,
2013-11-13 00:36:00,18.9,16.4,30.53,WNW,294,0.0,2.4,90,0.00,,CLR,0.00,VWS V14.00,2013-11-13 06:36:00,
2013-11-13 00:41:00,18.8,16.4,30.53,WNW,295,2.4,2.4,90,0.00,,CLR,0.00,VWS V14.00,2013-11-13 06:41:00,
2013-11-13 00:46:00,18.8,16.5,30.53,WNW,294,0.0,3.4,91,0.00,,CLR,0.00,VWS V14.00,2013-11-13 06:46:00,
2013-11-13 00:51:00,18.7,16.6,30.53,WNW,294,0.0,3.4,91,0.00,,CLR,0.00,VWS V14.00,2013-11-13 06:51:00,
2013-11-13 00:56:00,18.6,16.6,30.53,WNW,294,0.7,2.9,92,0.00,,CLR,0.00,VWS V14.00,2013-11-13 06:56:00,
2013-11-13 01:02:00,18.5,16.5,30.53,WNW,294,1.2,4.6,92,0.00,,CLR,0.00,VWS V14.00,2013-11-13 07:02:00,
2013-11-13 01:07:00,18.5,16.7,30.53,WNW,294,1.9,4.6,93,0.00,,CLR,0.00,VWS V14.00,2013-11-13 07:07:00,
2013-11-13 01:12:00,18.5,16.6,30.53,WNW,294,0.0,4.6,92,0.00,,CLR,0.00,VWS V14.00,2013-11-13 07:12:00,
2013-11-13 01:17:00,18.3,16.6,30.53,WNW,294,0.3,3.7,93,0.00,,CLR,0.00,VWS V14.00,2013-11-13 07:17:00,
2013-11-13 01:22:00,18.2,16.7,30.53,WNW,294,0.5,2.2,94,0.00,,CLR,0.00,VWS V14.00,2013-11-13 07:22:00,
2013-11-13 01:27:00,18.2,16.7,30.53,WNW,294,4.1,4.1,94,0.00,,CLR,0.00,VWS V14.00,2013-11-13 07:27:00,
2013-11-13 01:32:00,18.4,16.8,30.53,WNW,294,0.8,4.1,94,0.00,,CLR,0.00,VWS V14.00,2013-11-13 07:32:00,
2013-11-13 01:37:00,18.3,16.8,30.53,WNW,294,4.1,4.1,94,0.00,,CLR,0.00,VWS V14.00,2013-11-13 07:37:00,
2013-11-13 01:42:00,18.4,16.8,30.53,WNW,294,1.5,4.1,93,0.00,,CLR,0.00,VWS V14.00,2013-11-13 07:42:00,
2013-11-13 01:47:00,18.4,16.8,30.53,WNW,294,0.5,4.1,93,0.00,,CLR,0.00,VWS V14.00,2013-11-13 07:47:00,
2013-11-13 01:52:00,18.3,16.6,30.53,WNW,294,0.0,3.9,93,0.00,,CLR,0.00,VWS V14.00,2013-11-13 07:52:00,
2013-11-13 01:57:00,18.0,16.5,30.53,WNW,294,0.8,3.0,94,0.00,,CLR,0.00,VWS V14.00,2013-11-13 07:57:00,
2013-11-13 02:02:00,18.0,16.5,30.53,WNW,294,4.1,4.1,94,0.00,,CLR,0.00,VWS V14.00,2013-11-13 08:02:00,
2013-11-13 02:07:00,18.1,16.6,30.53,WNW,294,1.0,4.1,94,0.00,,CLR,0.00,VWS V14.00,2013-11-13 08:07:00,
2013-11-13 02:12:00,17.9,16.5,30.53,WNW,294,0.0,4.1,94,0.00,,CLR,0.00,VWS V14.00,2013-11-13 08:12:00,
2013-11-13 02:17:00,18.0,16.8,30.53,WNW,294,0.0,3.9,95,0.00,,CLR,0.00,VWS V14.00,2013-11-13 08:17:00,
2013-11-13 02:22:00,18.0,16.8,30.53,WNW,294,0.5,2.9,95,0.00,,CLR,0.00,VWS V14.00,2013-11-13 08:22:00,
2013-11-13 02:27:00,18.0,16.7,30.53,WNW,294,1.5,3.4,95,0.00,,CLR,0.00,VWS V14.00,2013-11-13 08:27:00,
2013-11-13 02:32:00,17.9,16.8,30.53,WNW,294,0.0,3.7,95,0.00,,CLR,0.00,VWS V14.00,2013-11-13 08:32:00,
2013-11-13 02:37:00,17.9,16.6,30.53,WNW,294,0.0,3.7,95,0.00,,CLR,0.00,VWS V14.00,2013-11-13 08:37:00,
2013-11-13 02:42:00,17.8,16.6,30.52,WNW,294,0.0,2.4,95,0.00,,CLR,0.00,VWS V14.00,2013-11-13 08:42:00,
2013-11-13 02:47:00,17.7,16.6,30.52,WNW,294,0.8,3.5,95,0.00,,CLR,0.00,VWS V14.00,2013-11-13 08:47:00,
2013-11-13 02:52:00,17.8,16.8,30.52,WNW,294,2.2,4.6,96,0.00,,CLR,0.00,VWS V14.00,2013-11-13 08:52:00,
2013-11-13 02:57:00,17.8,16.7,30.52,WNW,294,0.0,4.6,95,0.00,,CLR,0.00,VWS V14.00,2013-11-13 08:57:00,
2013-11-13 03:02:00,18.0,16.8,30.52,WNW,294,0.3,3.6,95,0.00,,CLR,0.00,VWS V14.00,2013-11-13 09:02:00,
2013-11-13 03:07:00,17.9,16.6,30.52,WNW,294,0.0,3.6,95,0.00,,CLR,0.00,VWS V14.00,2013-11-13 09:07:00,
2013-11-13 03:13:00,18.0,16.7,30.52,WNW,294,2.3,3.2,95,0.00,,CLR,0.00,VWS V14.00,2013-11-13 09:13:00,
2013-11-13 03:18:00,18.3,16.8,30.52,WNW,294,4.4,4.4,94,0.00,,CLR,0.00,VWS V14.00,2013-11-13 09:18:00,
2013-11-13 03:23:00,18.4,16.8,30.52,WNW,294,2.7,4.4,93,0.00,,CLR,0.00,VWS V14.00,2013-11-13 09:23:00,
2013-11-13 03:28:00,18.7,16.9,30.51,WNW,294,2.8,5.7,92,0.00,,CLR,0.00,VWS V14.00,2013-11-13 09:28:00,
2013-11-13 03:33:00,18.8,16.8,30.51,WNW,294,0.7,5.7,92,0.00,,CLR,0.00,VWS V14.00,2013-11-13 09:33:00,
2013-11-13 03:38:00,19.0,16.8,30.51,WNW,294,3.0,3.9,91,0.00,,CLR,0.00,VWS V14.00,2013-11-13 09:38:00,
2013-11-13 03:43:00,19.0,16.8,30.51,WNW,294,3.0,5.4,91,0.00,,CLR,0.00,VWS V14.00,2013-11-13 09:43:00,
2013-11-13 03:48:00,19.0,16.7,30.50,WNW,294,4.4,5.4,90,0.00,,CLR,0.00,VWS V14.00,2013-11-13 09:48:00,
2013-11-13 03:53:00,19.2,16.8,30.50,WNW,294,0.0,4.9,90,0.00,,CLR,0.00,VWS V14.00,2013-11-13 09:53:00,
2013-11-13 03:58:00,19.0,16.7,30.50,WNW,294,1.0,4.9,91,0.00,,CLR,0.00,VWS V14.00,2013-11-13 09:58:00,
2013-11-13 04:03:00,19.0,16.7,30.50,WNW,294,1.7,3.4,91,0.00,,CLR,0.00,VWS V14.00,2013-11-13 10:03:00,
2013-11-13 04:08:00,19.0,16.9,30.50,WNW,294,3.9,3.9,91,0.00,,CLR,0.00,VWS V14.00,2013-11-13 10:08:00,
2013-11-13 04:13:00,19.1,16.9,30.50,WNW,294,1.4,4.2,91,0.00,,CLR,0.00,VWS V14.00,2013-11-13 10:13:00,
2013-11-13 04:18:00,19.0,16.9,30.50,WNW,294,0.2,4.9,91,0.00,,CLR,0.00,VWS V14.00,2013-11-13 10:18:00,
2013-11-13 04:23:00,19.0,17.0,30.49,WNW,294,3.5,5.7,92,0.00,,CLR,0.00,VWS V14.00,2013-11-13 10:23:00,
2013-11-13 04:28:00,19.0,17.1,30.49,WNW,294,0.2,6.1,92,0.00,,CLR,0.00,VWS V14.00,2013-11-13 10:28:00,
2013-11-13 04:33:00,19.0,17.1,30.49,WNW,294,5.6,6.2,92,0.00,,CLR,0.00,VWS V14.00,2013-11-13 10:33:00,
2013-11-13 04:39:00,19.0,17.1,30.49,WNW,294,5.1,6.2,92,0.00,,CLR,0.00,VWS V14.00,2013-11-13 10:39:00,
2013-11-13 04:44:00,19.1,17.0,30.48,WNW,294,2.5,6.8,92,0.00,,CLR,0.00,VWS V14.00,2013-11-13 10:44:00,
2013-11-13 04:49:00,19.1,17.0,30.49,WNW,294,4.1,7.8,91,0.00,,CLR,0.00,VWS V14.00,2013-11-13 10:49:00,
2013-11-13 04:54:00,19.1,16.9,30.48,West,265,6.2,8.9,91,0.00,,CLR,0.00,VWS V14.00,2013-11-13 10:54:00,
2013-11-13 04:59:00,19.2,17.0,30.48,West,264,3.7,8.9,91,0.00,,CLR,0.00,VWS V14.00,2013-11-13 10:59:00,
2013-11-13 05:04:00,19.1,17.0,30.48,WSW,249,3.0,7.6,91,0.00,,CLR,0.00,VWS V14.00,2013-11-13 11:04:00,
2013-11-13 05:09:00,19.1,17.1,30.48,WSW,243,4.1,8.3,92,0.00,,CLR,0.00,VWS V14.00,2013-11-13 11:09:00,
2013-11-13 05:14:00,19.0,17.1,30.48,WSW,241,4.6,8.3,92,0.00,,CLR,0.00,VWS V14.00,2013-11-13 11:14:00,
2013-11-13 05:19:00,19.0,17.1,30.48,WSW,240,3.4,8.3,92,0.00,,CLR,0.00,VWS V14.00,2013-11-13 11:19:00,
2013-11-13 05:24:00,18.9,17.1,30.48,WSW,238,6.2,7.9,93,0.00,,CLR,0.00,VWS V14.00,2013-11-13 11:24:00,
2013-11-13 05:29:00,18.8,17.2,30.48,WSW,237,6.1,8.3,93,0.00,,CLR,0.00,VWS V14.00,2013-11-13 11:29:00,
2013-11-13 05:34:00,18.8,17.3,30.47,SW,234,4.7,8.3,94,0.00,,CLR,0.00,VWS V14.00,2013-11-13 11:34:00,
2013-11-13 05:39:00,19.0,17.6,30.47,SW,230,8.4,8.6,94,0.00,,CLR,0.00,VWS V14.00,2013-11-13 11:39:00,
2013-11-13 05:44:00,19.0,17.7,30.47,SW,229,7.6,8.6,94,0.00,,CLR,0.00,VWS V14.00,2013-11-13 11:44:00,
2013-11-13 05:49:00,19.1,17.7,30.47,SW,227,5.6,9.1,94,0.00,,CLR,0.00,VWS V14.00,2013-11-13 11:49:00,
2013-11-13 05:54:00,19.0,17.6,30.47,SW,226,7.8,9.1,94,0.00,,CLR,0.00,VWS V14.00,2013-11-13 11:54:00,
2013-11-13 05:59:00,19.0,17.7,30.47,SW,226,5.1,8.8,94,0.00,,CLR,0.00,VWS V14.00,2013-11-13 11:59:00,
2013-11-13 06:04:00,19.0,17.6,30.47,SW,226,4.6,8.2,94,0.00,,CLR,0.00,VWS V14.00,2013-11-13 12:04:00,
2013-11-13 06:09:00,18.9,17.6,30.46,SW,225,6.2,8.6,95,0.00,,CLR,0.00,VWS V14.00,2013-11-13 12:09:00,
2013-11-13 06:14:00,18.9,17.6,30.46,SW,225,5.6,8.6,95,0.00,,CLR,0.00,VWS V14.00,2013-11-13 12:14:00,
2013-11-13 06:19:00,18.8,17.6,30.46,SW,225,2.4,8.6,95,0.00,,CLR,0.00,VWS V14.00,2013-11-13 12:19:00,
2013-11-13 06:24:00,18.8,17.6,30.47,SW,225,5.2,7.6,95,0.00,,CLR,0.00,VWS V14.00,2013-11-13 12:24:00,
2013-11-13 06:29:00,18.7,17.6,30.47,SW,225,4.4,7.6,95,0.00,,CLR,0.00,VWS V14.00,2013-11-13 12:29:00,
2013-11-13 06:34:00,18.8,17.8,30.46,SW,225,4.1,8.7,96,0.00,,CLR,0.00,VWS V14.00,2013-11-13 12:34:00,
2013-11-13 06:39:00,18.9,17.9,30.46,SW,224,5.7,9.4,96,0.00,,CLR,0.00,VWS V14.00,2013-11-13 12:39:00,
2013-11-13 06:44:00,19.0,17.9,30.46,SW,221,9.1,9.8,96,0.00,,CLR,0.00,VWS V14.00,2013-11-13 12:44:00,
2013-11-13 06:49:00,19.0,17.9,30.46,SW,221,8.0,9.8,95,0.00,,CLR,0.00,VWS V14.00,2013-11-13 12:49:00,
2013-11-13 06:54:00,19.1,18.0,30.46,SW,221,5.9,9.6,95,0.00,,CLR,0.00,VWS V14.00,2013-11-13 12:54:00,
2013-11-13 06:59:00,19.1,18.0,30.46,SW,220,6.9,10.1,95,0.00,,CLR,0.00,VWS V14.00,2013-11-13 12:59:00,
2013-11-13 07:04:00,19.3,18.1,30.45,SW,220,9.8,10.1,95,0.00,,CLR,0.00,VWS V14.00,2013-11-13 13:04:00,
2013-11-13 07:09:00,19.4,18.1,30.45,SW,219,4.2,9.8,95,0.00,,CLR,0.00,VWS V14.00,2013-11-13 13:09:00,
2013-11-13 07:14:00,19.5,18.2,30.45,SW,219,5.2,9.8,94,0.00,,CLR,0.00,VWS V14.00,2013-11-13 13:14:00,
2013-11-13 07:19:00,19.8,18.3,30.45,SW,220,6.4,10.3,94,0.00,,CLR,0.00,VWS V14.00,2013-11-13 13:19:00,
2013-11-13 07:24:00,20.0,18.4,30.45,SW,220,7.8,10.3,93,0.00,,CLR,0.00,VWS V14.00,2013-11-13 13:24:00,
2013-11-13 07:29:00,20.3,18.5,30.45,SW,220,5.9,10.6,92,0.00,,CLR,0.00,VWS V14.00,2013-11-13 13:29:00,
2013-11-13 07:34:00,20.5,18.6,30.45,SW,218,4.4,11.3,92,0.00,,CLR,0.00,VWS V14.00,2013-11-13 13:34:00,
2013-11-13 07:39:00,21.0,18.9,30.45,WSW,238,6.9,11.3,91,0.00,,CLR,0.00,VWS V14.00,2013-11-13 13:39:00,
2013-11-13 07:44:00,21.3,19.0,30.45,SW,214,7.8,9.6,91,0.00,,CLR,0.00,VWS V14.00,2013-11-13 13:44:00,
2013-11-13 07:49:00,21.6,19.3,30.45,SSW,213,7.3,10.8,91,0.00,,CLR,0.00,VWS V14.00,2013-11-13 13:49:00,
2013-11-13 07:54:00,21.8,19.4,30.45,SSW,208,7.9,11.8,90,0.00,,CLR,0.00,VWS V14.00,2013-11-13 13:54:00,
2013-11-13 07:59:00,22.0,19.4,30.45,SW,219,11.4,11.8,89,0.00,,CLR,0.00,VWS V14.00,2013-11-13 13:59:00,
2013-11-13 08:05:00,22.2,19.5,30.44,SW,226,6.9,11.5,89,0.00,,CLR,0.00,VWS V14.00,2013-11-13 14:05:00,
2013-11-13 08:10:00,22.6,19.8,30.44,SW,228,10.5,13.8,89,0.00,,CLR,0.00,VWS V14.00,2013-11-13 14:10:00,
2013-11-13 08:15:00,23.1,20.0,30.44,SW,231,8.4,16.4,88,0.00,,CLR,0.00,VWS V14.00,2013-11-13 14:15:00,
2013-11-13 08:20:00,23.4,20.2,30.44,SW,216,5.4,16.4,87,0.00,,CLR,0.00,VWS V14.00,2013-11-13 14:20:00,
2013-11-13 08:25:00,23.7,20.2,30.44,SW,222,6.0,16.4,86,0.00,,CLR,0.00,VWS V14.00,2013-11-13 14:25:00,
2013-11-13 08:30:00,24.1,20.6,30.44,SW,219,13.0,15.2,86,0.00,,CLR,0.00,VWS V14.00,2013-11-13 14:30:00,
2013-11-13 08:35:00,24.4,21.0,30.43,WSW,239,10.8,14.4,87,0.00,,CLR,0.00,VWS V14.00,2013-11-13 14:35:00,
2013-11-13 08:40:00,24.5,20.7,30.43,SW,234,12.1,13.7,85,0.00,,CLR,0.00,VWS V14.00,2013-11-13 14:40:00,
2013-11-13 08:45:00,25.0,21.1,30.43,SSW,194,4.6,13.2,85,0.00,,CLR,0.00,VWS V14.00,2013-11-13 14:45:00,
2013-11-13 08:50:00,25.4,20.8,30.42,WSW,243,9.8,15.3,83,0.00,,CLR,0.00,VWS V14.00,2013-11-13 14:50:00,
2013-11-13 08:55:00,25.9,20.9,30.42,SW,217,11.0,15.8,81,0.00,,CLR,0.00,VWS V14.00,2013-11-13 14:55:00,
2013-11-13 09:00:00,26.2,20.8,30.41,SW,223,15.3,16.0,80,0.00,,CLR,0.00,VWS V14.00,2013-11-13 15:00:00,
2013-11-13 09:05:00,26.5,20.9,30.41,SW,231,8.3,16.4,79,0.00,,CLR,0.00,VWS V14.00,2013-11-13 15:05:00,
2013-11-13 09:10:00,27.0,21.3,30.41,SW,218,12.1,16.4,79,0.00,,CLR,0.00,VWS V14.00,2013-11-13 15:10:00,
2013-11-13 09:15:00,27.3,21.5,30.41,SW,234,14.5,15.5,78,0.00,,CLR,0.00,VWS V14.00,2013-11-13 15:15:00,
2013-11-13 09:20:00,27.9,21.9,30.40,SSW,204,7.5,14.9,78,0.00,,CLR,0.00,VWS V14.00,2013-11-13 15:20:00,
2013-11-13 09:25:00,28.2,21.6,30.40,SSW,210,10.0,17.2,76,0.00,,CLR,0.00,VWS V14.00,2013-11-13 15:25:00,
2013-11-13 09:30:00,28.7,21.8,30.40,SW,224,6.9,17.2,75,0.00,,CLR,0.00,VWS V14.00,2013-11-13 15:30:00,
2013-11-13 09:35:00,29.5,22.5,30.40,SSW,200,5.7,16.0,75,0.00,,CLR,0.00,VWS V14.00,2013-11-13 15:35:00,
2013-11-13 09:40:00,29.7,22.6,30.39,SW,218,14.0,16.0,74,0.00,,CLR,0.00,VWS V14.00,2013-11-13 15:40:00,
2013-11-13 09:45:00,29.9,22.5,30.39,SSW,201,13.3,15.7,74,0.00,,CLR,0.00,VWS V14.00,2013-11-13 15:45:00,
2013-11-13 09:50:00,30.4,22.5,30.39,SW,229,16.2,17.2,72,0.00,,CLR,0.00,VWS V14.00,2013-11-13 15:50:00,
2013-11-13 09:55:00,30.6,22.6,30.39,SSW,211,8.6,19.0,72,0.00,,CLR,0.00,VWS V14.00,2013-11-13 15:55:00,
2013-11-13 10:00:00,31.1,22.8,30.39,SSW,194,10.3,19.0,71,0.00,,CLR,0.00,VWS V14.00,2013-11-13 16:00:00,
2013-11-13 10:05:00,31.2,22.3,30.38,SW,222,10.8,19.0,69,0.00,,CLR,0.00,VWS V14.00,2013-11-13 16:05:00,
2013-11-13 10:10:00,31.6,22.6,30.38,SW,233,10.5,20.2,69,0.00,,CLR,0.00,VWS V14.00,2013-11-13 16:10:00,
2013-11-13 10:15:00,31.7,22.1,30.38,SSW,202,13.9,22.7,67,0.00,,CLR,0.00,VWS V14.00,2013-11-13 16:15:00,
2013-11-13 10:20:00,31.9,22.2,30.38,SW,219,10.6,22.7,67,0.00,,CLR,0.00,VWS V14.00,2013-11-13 16:20:00,
2013-11-13 10:25:00,32.5,22.3,30.37,SW,236,12.8,19.0,66,0.00,,CLR,0.00,VWS V14.00,2013-11-13 16:25:00,
2013-11-13 10:30:00,33.3,23.7,30.37,SW,215,9.2,17.6,68,0.00,,CLR,0.00,VWS V14.00,2013-11-13 16:30:00,
2013-11-13 10:35:00,33.4,23.1,30.37,SW,222,14.9,18.4,65,0.00,,CLR,0.00,VWS V14.00,2013-11-13 16:35:00,
2013-11-13 10:40:00,33.9,23.4,30.37,SSW,202,12.7,18.4,65,0.00,,CLR,0.00,VWS V14.00,2013-11-13 16:40:00,
2013-11-13 10:45:00,34.0,22.6,30.36,WSW,239,20.4,23.8,63,0.00,,CLR,0.00,VWS V14.00,2013-11-13 16:45:00,
2013-11-13 10:50:00,34.1,22.9,30.36,SW,221,12.5,23.8,63,0.00,,CLR,0.00,VWS V14.00,2013-11-13 16:50:00,
2013-11-13 10:55:00,34.1,21.9,30.36,SSW,203,16.9,23.8,61,0.00,,CLR,0.00,VWS V14.00,2013-11-13 16:55:00,
2013-11-13 11:00:00,34.8,22.5,30.35,SSW,207,7.8,23.6,60,0.00,,CLR,0.00,VWS V14.00,2013-11-13 17:00:00,
2013-11-13 11:05:00,35.0,22.0,30.35,SW,222,13.3,21.8,59,0.00,,CLR,0.00,VWS V14.00,2013-11-13 17:05:00,
2013-11-13 11:10:00,35.3,23.0,30.34,SW,233,12.0,20.1,60,0.00,,CLR,0.00,VWS V14.00,2013-11-13 17:10:00,
2013-11-13 11:15:00,35.6,23.3,30.34,SSW,199,11.5,18.7,61,0.00,,CLR,0.00,VWS V14.00,2013-11-13 17:15:00,
2013-11-13 11:21:00,35.6,23.0,30.33,SSW,211,12.1,18.7,60,0.00,,CLR,0.00,VWS V14.00,2013-11-13 17:21:00,
2013-11-13 11:26:00,35.4,22.5,30.33,SW,216,13.0,21.9,59,0.00,,CLR,0.00,VWS V14.00,2013-11-13 17:26:00,
2013-11-13 11:31:00,36.0,23.6,30.33,SSW,211,11.0,21.9,60,0.00,,CLR,0.00,VWS V14.00,2013-11-13 17:31:00,
2013-11-13 11:36:00,36.2,22.1,30.33,SW,222,9.6,21.0,56,0.00,,CLR,0.00,VWS V14.00,2013-11-13 17:36:00,
2013-11-13 11:41:00,36.6,22.4,30.32,SSW,213,11.5,21.8,56,0.00,,CLR,0.00,VWS V14.00,2013-11-13 17:41:00,
2013-11-13 11:46:00,37.0,23.4,30.32,SW,233,7.8,21.8,57,0.00,,CLR,0.00,VWS V14.00,2013-11-13 17:46:00,
2013-11-13 11:51:00,37.2,22.7,30.32,WSW,238,8.8,17.7,55,0.00,,CLR,0.00,VWS V14.00,2013-11-13 17:51:00,
2013-11-13 11:56:00,37.8,23.0,30.31,SW,221,15.0,16.7,55,0.00,,CLR,0.00,VWS V14.00,2013-11-13 17:56:00,
2013-11-13 12:01:00,37.8,21.9,30.31,SSW,201,11.0,22.4,52,0.00,,CLR,0.00,VWS V14.00,2013-11-13 18:01:00,
2013-11-13 12:06:00,38.2,22.5,30.30,SSW,200,10.8,22.4,53,0.00,,CLR,0.00,VWS V14.00,2013-11-13 18:06:00,
2013-11-13 12:11:00,38.4,21.2,30.30,SSW,205,20.2,20.6,50,0.00,,CLR,0.00,VWS V14.00,2013-11-13 18:11:00,
2013-11-13 12:16:00,39.0,23.0,30.30,SSW,200,11.6,26.3,52,0.00,,CLR,0.00,VWS V14.00,2013-11-13 18:16:00,
2013-11-13 12:21:00,39.4,23.2,30.29,South,184,12.0,26.3,52,0.00,,CLR,0.00,VWS V14.00,2013-11-13 18:21:00,
2013-11-13 12:26:00,39.5,21.9,30.29,SW,224,16.3,21.9,49,0.00,,CLR,0.00,VWS V14.00,2013-11-13 18:26:00,
2013-11-13 12:31:00,40.0,22.7,30.29,WSW,246,9.8,21.9,50,0.00,,CLR,0.00,VWS V14.00,2013-11-13 18:31:00,
2013-11-13 12:36:00,39.7,21.8,30.29,WSW,241,4.1,17.9,48,0.00,,CLR,0.00,VWS V14.00,2013-11-13 18:36:00,
2013-11-13 12:41:00,40.3,22.1,30.29,SW,219,7.3,17.9,48,0.00,,CLR,0.00,VWS V14.00,2013-11-13 18:41:00,
2013-11-13 12:46:00,41.1,23.1,30.28,SSW,212,10.1,17.9,49,0.00,,CLR,0.00,VWS V14.00,2013-11-13 18:46:00,
2013-11-13 12:51:00,40.9,22.0,30.28,SSW,197,16.5,19.7,47,0.00,,CLR,0.00,VWS V14.00,2013-11-13 18:51:00,
2013-11-13 12:56:00,41.0,22.5,30.28,SW,230,14.3,19.7,47,0.00,,CLR,0.00,VWS V14.00,2013-11-13 18:56:00,
2013-11-13 13:01:00,41.1,22.1,30.27,SW,214,12.0,16.5,46,0.00,,CLR,0.00,VWS V14.00,2013-11-13 19:01:00,
2013-11-13 13:06:00,41.3,19.2,30.27,SSW,203,10.6,22.4,41,0.00,,CLR,0.00,VWS V14.00,2013-11-13 19:06:00,
2013-11-13 13:11:00,41.4,18.3,30.27,SW,234,20.2,22.4,39,0.00,,CLR,0.00,VWS V14.00,2013-11-13 19:11:00,
2013-11-13 13:16:00,41.4,18.9,30.26,SSW,209,11.8,22.7,40,0.00,,CLR,0.00,VWS V14.00,2013-11-13 19:16:00,
2013-11-13 13:21:00,41.5,19.2,30.26,SSW,208,15.0,22.7,40,0.00,,CLR,0.00,VWS V14.00,2013-11-13 19:21:00,
2013-11-13 13:26:00,42.1,19.1,30.25,WSW,250,17.8,21.0,39,0.00,,CLR,0.00,VWS V14.00,2013-11-13 19:26:00,
2013-11-13 13:31:00,42.4,20.1,30.25,SSW,212,10.6,21.0,41,0.00,,CLR,0.00,VWS V14.00,2013-11-13 19:31:00,
2013-11-13 13:36:00,42.9,21.3,30.25,SW,227,10.3,21.6,42,0.00,,CLR,0.00,VWS V14.00,2013-11-13 19:36:00,
2013-11-13 13:41:00,43.0,19.2,30.25,SW,221,12.1,24.3,38,0.00,,CLR,0.00,VWS V14.00,2013-11-13 19:41:00,
2013-11-13 13:46:00,42.7,18.0,30.25,WSW,256,15.8,24.3,37,0.00,,CLR,0.00,VWS V14.00,2013-11-13 19:46:00,
2013-11-13 13:51:00,42.8,19.8,30.25,SW,215,9.9,23.1,39,0.00,,CLR,0.00,VWS V14.00,2013-11-13 19:51:00,
2013-11-13 13:56:00,42.7,20.3,30.24,SW,233,13.5,21.5,40,0.00,,CLR,0.00,VWS V14.00,2013-11-13 19:56:00,
2013-11-13 14:01:00,42.8,19.0,30.24,WSW,258,13.0,20.6,38,0.00,,CLR,0.00,VWS V14.00,2013-11-13 20:01:00,
2013-11-13 14:06:00,42.8,19.3,30.24,SW,218,8.5,23.3,39,0.00,,CLR,0.00,VWS V14.00,2013-11-13 20:06:00,
2013-11-13 14:11:00,42.9,19.7,30.23,SW,214,13.5,23.3,39,0.00,,CLR,0.00,VWS V14.00,2013-11-13 20:11:00,
2013-11-13 14:16:00,42.8,19.7,30.23,SW,216,12.8,21.4,39,0.00,,CLR,0.00,VWS V14.00,2013-11-13 20:16:00,
2013-11-13 14:21:00,43.2,19.9,30.22,SW,232,15.0,20.1,39,0.00,,CLR,0.00,VWS V14.00,2013-11-13 20:21:00,
2013-11-13 14:27:00,43.1,20.6,30.22,SSW,212,12.8,17.8,40,0.00,,CLR,0.00,VWS V14.00,2013-11-13 20:27:00,
2013-11-13 14:32:00,43.2,21.1,30.22,SW,220,8.5,18.4,41,0.00,,CLR,0.00,VWS V14.00,2013-11-13 20:32:00,
2013-11-13 14:37:00,42.9,19.7,30.22,SW,223,12.4,23.0,39,0.00,,CLR,0.00,VWS V14.00,2013-11-13 20:37:00,
2013-11-13 14:42:00,42.8,20.7,30.21,SW,220,8.9,23.0,41,0.00,,CLR,0.00,VWS V14.00,2013-11-13 20:42:00,
2013-11-13 14:47:00,43.1,20.9,30.21,SSW,209,19.0,19.0,41,0.00,,CLR,0.00,VWS V14.00,2013-11-13 20:47:00,
2013-11-13 14:52:00,42.9,20.6,30.21,SSW,206,18.2,24.0,41,0.00,,CLR,0.00,VWS V14.00,2013-11-13 20:52:00,
2013-11-13 14:57:00,42.8,22.5,30.21,SW,217,9.6,24.0,44,0.00,,CLR,0.00,VWS V14.00,2013-11-13 20:57:00,
2013-11-13 15:02:00,42.6,22.9,30.21,SSW,197,11.5,24.0,45,0.00,,CLR,0.00,VWS V14.00,2013-11-13 21:02:00,
2013-11-13 15:07:00,42.5,22.3,30.21,SW,217,10.1,20.6,44,0.00,,CLR,0.00,VWS V14.00,2013-11-13 21:07:00,
2013-11-13 15:12:00,42.2,22.3,30.20,SSW,213,9.8,21.1,45,0.00,,CLR,0.00,VWS V14.00,2013-11-13 21:12:00,
2013-11-13 15:17:00,42.0,22.5,30.20,SW,217,13.0,21.1,46,0.00,,CLR,0.00,VWS V14.00,2013-11-13 21:17:00,
2013-11-13 15:22:00,41.8,22.0,30.20,SW,231,13.5,21.1,45,0.00,,CLR,0.00,VWS V14.00,2013-11-13 21:22:00,
2013-11-13 15:27:00,41.8,22.9,30.20,SSW,209,13.3,19.4,47,0.00,,CLR,0.00,VWS V14.00,2013-11-13 21:27:00,
2013-11-13 15:32:00,41.7,23.1,30.20,SSW,206,13.5,21.6,47,0.00,,CLR,0.00,VWS V14.00,2013-11-13 21:32:00,
2013-11-13 15:37:00,41.5,22.9,30.19,SW,223,8.1,21.6,47,0.00,,CLR,0.00,VWS V14.00,2013-11-13 21:37:00,
2013-11-13 15:42:00,41.3,22.7,30.19,SW,232,14.2,21.6,47,0.00,,CLR,0.00,VWS V14.00,2013-11-13 21:42:00,
2013-11-13 15:47:00,41.2,21.8,30.19,SSW,199,13.2,19.2,46,0.00,,CLR,0.00,VWS V14.00,2013-11-13 21:47:00,
2013-11-13 15:52:00,40.8,22.1,30.19,SW,223,12.1,19.2,47,0.00,,CLR,0.00,VWS V14.00,2013-11-13 21:52:00,
2013-11-13 15:57:00,40.6,22.5,30.19,WSW,241,13.1,17.6,48,0.00,,CLR,0.00,VWS V14.00,2013-11-13 21:57:00,
2013-11-13 16:02:00,40.5,22.8,30.19,SSW,200,8.6,17.7,49,0.00,,CLR,0.00,VWS V14.00,2013-11-13 22:02:00,
2013-11-13 16:07:00,40.3,23.1,30.18,WSW,237,17.2,17.7,50,0.00,,CLR,0.00,VWS V14.00,2013-11-13 22:07:00,
2013-11-13 16:12:00,40.2,22.8,30.18,SW,220,13.3,24.3,49,0.00,,CLR,0.00,VWS V14.00,2013-11-13 22:12:00,
2013-11-13 16:17:00,40.0,22.9,30.18,SW,219,16.0,24.3,50,0.00,,CLR,0.00,VWS V14.00,2013-11-13 22:17:00,
2013-11-13 16:22:00,39.7,23.0,30.18,SW,219,11.1,24.3,51,0.00,,CLR,0.00,VWS V14.00,2013-11-13 22:22:00,
2013-11-13 16:27:00,39.4,23.1,30.18,SSW,211,13.3,18.7,52,0.00,,CLR,0.00,VWS V14.00,2013-11-13 22:27:00,
2013-11-13 16:32:00,39.1,23.3,30.18,SSW,194,12.1,15.9,53,0.00,,CLR,0.00,VWS V14.00,2013-11-13 22:32:00,
2013-11-13 16:37:00,38.7,23.6,30.18,SSW,194,14.7,17.4,54,0.00,,CLR,0.00,VWS V14.00,2013-11-13 22:37:00,
2013-11-13 16:42:00,38.4,24.0,30.18,SSW,200,5.7,17.4,56,0.00,,CLR,0.00,VWS V14.00,2013-11-13 22:42:00,
2013-11-13 16:47:00,38.2,24.1,30.18,SSW,197,8.6,16.9,56,0.00,,CLR,0.00,VWS V14.00,2013-11-13 22:47:00,
2013-11-13 16:52:00,37.9,24.0,30.18,SW,219,13.9,16.9,57,0.00,,CLR,0.00,VWS V14.00,2013-11-13 22:52:00,
2013-11-13 16:57:00,37.6,24.2,30.18,SSW,202,12.1,16.9,58,0.00,,CLR,0.00,VWS V14.00,2013-11-13 22:57:00,
2013-11-13 17:02:00,37.4,24.2,30.18,SSW,213,10.5,16.7,59,0.00,,CLR,0.00,VWS V14.00,2013-11-13 23:02:00,
2013-11-13 17:07:00,37.1,24.5,30.18,SSW,202,10.0,15.2,60,0.00,,CLR,0.00,VWS V14.00,2013-11-13 23:07:00,
2013-11-13 17:12:00,36.9,24.5,30.18,SSW,211,8.8,13.8,60,0.00,,CLR,0.00,VWS V14.00,2013-11-13 23:12:00,
2013-11-13 17:17:00,36.7,24.6,30.18,SSW,212,11.5,14.5,61,0.00,,CLR,0.00,VWS V14.00,2013-11-13 23:17:00,
2013-11-13 17:22:00,36.4,24.9,30.17,SSW,203,8.8,14.5,63,0.00,,CLR,0.00,VWS V14.00,2013-11-13 23:22:00,
2013-11-13 17:27:00,36.2,24.8,30.17,SSW,210,5.9,14.3,63,0.00,,CLR,0.00,VWS V14.00,2013-11-13 23:27:00,
2013-11-13 17:33:00,36.3,24.5,30.17,SSW,210,17.2,17.2,62,0.00,,CLR,0.00,VWS V14.00,2013-11-13 23:33:00,
2013-11-13 17:38:00,36.5,24.4,30.17,SSW,195,17.9,17.9,61,0.00,,CLR,0.00,VWS V14.00,2013-11-13 23:38:00,
2013-11-13 17:43:00,36.5,24.3,30.17,SW,214,9.6,17.9,61,0.00,,CLR,0.00,VWS V14.00,2013-11-13 23:43:00,
2013-11-13 17:48:00,36.7,24.0,30.17,SW,224,13.8,18.9,60,0.00,,CLR,0.00,VWS V14.00,2013-11-13 23:48:00,
2013-11-13 17:53:00,36.8,23.6,30.17,SSW,207,15.2,21.1,58,0.00,,CLR,0.00,VWS V14.00,2013-11-13 23:53:00,
2013-11-13 17:58:00,36.8,23.4,30.17,SW,217,13.0,22.4,58,0.00,,CLR,0.00,VWS V14.00,2013-11-13 23:58:00,
2013-11-13 18:03:00,36.6,23.4,30.17,SSW,208,8.8,22.4,58,0.00,,CLR,0.00,VWS V14.00,2013-11-14 00:03:00,
2013-11-13 18:08:00,36.4,23.3,30.17,SW,219,10.6,19.1,59,0.00,,CLR,0.00,VWS V14.00,2013-11-14 00:08:00,
2013-11-13 18:13:00,36.5,23.2,30.16,SSW,212,10.3,19.7,58,0.00,,CLR,0.00,VWS V14.00,2013-11-14 00:13:00,
2013-11-13 18:18:00,36.6,22.9,30.16,SSW,199,14.5,19.7,57,0.00,,CLR,0.00,VWS V14.00,2013-11-14 00:18:00,
2013-11-13 18:23:00,36.6,22.9,30.16,SSW,205,8.6,22.7,57,0.00,,CLR,0.00,VWS V14.00,2013-11-14 00:23:00,
2013-11-13 18:28:00,36.5,22.7,30.16,South,189,12.3,22.7,57,0.00,,CLR,0.00,VWS V14.00,2013-11-14 00:28:00,
2013-11-13 18:33:00,36.5,22.7,30.16,SW,225,12.1,20.4,57,0.00,,CLR,0.00,VWS V14.00,2013-11-14 00:33:00,
2013-11-13 18:38:00,36.3,22.7,30.16,SSW,207,16.5,19.7,57,0.00,,CLR,0.00,VWS V14.00,2013-11-14 00:38:00,
2013-11-13 18:43:00,36.1,22.7,30.15,SW,224,11.7,19.9,58,0.00,,CLR,0.00,VWS V14.00,2013-11-14 00:43:00,
2013-11-13 18:48:00,36.2,22.4,30.15,SSW,206,16.0,19.9,57,0.00,,CLR,0.00,VWS V14.00,2013-11-14 00:48:00,
2013-11-13 18:53:00,36.1,22.5,30.15,SSW,205,13.8,19.9,57,0.00,,CLR,0.00,VWS V14.00,2013-11-14 00:53:00,
2013-11-13 18:58:00,36.0,22.5,30.15,SSW,209,16.5,19.9,57,0.00,,CLR,0.00,VWS V14.00,2013-11-14 00:58:00,
2013-11-13 19:03:00,35.8,22.6,30.15,SSW,211,12.3,19.9,58,0.00,,CLR,0.00,VWS V14.00,2013-11-14 01:03:00,
2013-11-13 19:08:00,35.7,22.6,30.15,SSW,209,13.0,19.9,59,0.00,,CLR,0.00,VWS V14.00,2013-11-14 01:08:00,
2013-11-13 19:14:00,35.4,22.9,30.15,SSW,212,13.7,19.0,60,0.00,,CLR,0.00,VWS V14.00,2013-11-14 01:14:00,
2013-11-13 19:19:00,35.2,23.0,30.14,SSW,206,12.0,22.6,61,0.00,,CLR,0.00,VWS V14.00,2013-11-14 01:19:00,
2013-11-13 19:24:00,34.9,22.9,30.14,SSW,198,14.3,22.6,61,0.00,,CLR,0.00,VWS V14.00,2013-11-14 01:24:00,
2013-11-13 19:29:00,34.8,23.0,30.14,SSW,193,14.5,18.7,62,0.00,,CLR,0.00,VWS V14.00,2013-11-14 01:29:00,
2013-11-13 19:34:00,34.7,23.1,30.13,South,182,13.2,19.4,62,0.00,,CLR,0.00,VWS V14.00,2013-11-14 01:34:00,
2013-11-13 19:39:00,34.8,22.8,30.13,SSW,206,17.5,19.5,61,0.00,,CLR,0.00,VWS V14.00,2013-11-14 01:39:00,
2013-11-13 19:44:00,34.7,22.9,30.13,SSW,201,16.2,23.0,62,0.00,,CLR,0.00,VWS V14.00,2013-11-14 01:44:00,
2013-11-13 19:49:00,34.5,23.0,30.13,SSW,204,14.2,23.0,62,0.00,,CLR,0.00,VWS V14.00,2013-11-14 01:49:00,
2013-11-13 19:54:00,34.4,22.8,30.13,SSW,207,15.4,19.9,62,0.00,,CLR,0.00,VWS V14.00,2013-11-14 01:54:00,
2013-11-13 19:59:00,34.3,22.7,30.13,SW,222,13.0,24.3,62,0.00,,CLR,0.00,VWS V14.00,2013-11-14 01:59:00,
2013-11-13 20:04:00,34.3,22.7,30.13,SSW,213,16.2,24.3,62,0.00,,CLR,0.00,VWS V14.00,2013-11-14 02:04:00,
2013-11-13 20:09:00,34.3,22.6,30.13,SW,215,15.1,24.3,62,0.00,,CLR,0.00,VWS V14.00,2013-11-14 02:09:00,
2013-11-13 20:14:00,34.3,22.4,30.12,SW,218,11.0,19.6,61,0.00,,CLR,0.00,VWS V14.00,2013-11-14 02:14:00,
2013-11-13 20:19:00,34.2,22.3,30.12,SSW,211,14.9,20.4,61,0.00,,CLR,0.00,VWS V14.00,2013-11-14 02:19:00,
2013-11-13 20:24:00,34.2,22.2,30.12,SSW,203,10.6,20.4,61,0.00,,CLR,0.00,VWS V14.00,2013-11-14 02:24:00,
2013-11-13 20:29:00,34.0,22.3,30.12,SW,224,8.3,18.9,62,0.00,,CLR,0.00,VWS V14.00,2013-11-14 02:29:00,
2013-11-13 20:34:00,33.8,22.3,30.12,SW,218,15.0,19.2,62,0.00,,CLR,0.00,VWS V14.00,2013-11-14 02:34:00,
2013-11-13 20:39:00,33.8,22.3,30.12,SSW,203,11.6,19.2,62,0.00,,CLR,0.00,VWS V14.00,2013-11-14 02:39:00,
2013-11-13 20:44:00,33.6,22.4,30.12,SSW,205,12.3,18.9,63,0.00,,CLR,0.00,VWS V14.00,2013-11-14 02:44:00,
2013-11-13 20:49:00,33.5,22.3,30.11,SSW,196,14.2,18.9,63,0.00,,CLR,0.00,VWS V14.00,2013-11-14 02:49:00,
2013-11-13 20:54:00,33.6,22.1,30.11,SSW,206,16.5,20.4,62,0.00,,CLR,0.00,VWS V14.00,2013-11-14 02:54:00,
2013-11-13 20:59:00,33.5,22.2,30.11,SSW,201,12.7,20.4,63,0.00,,CLR,0.00,VWS V14.00,2013-11-14 02:59:00,
2013-11-13 21:04:00,33.3,22.2,30.11,SW,224,9.5,19.4,63,0.00,,CLR,0.00,VWS V14.00,2013-11-14 03:04:00,
2013-11-13 21:09:00,33.4,22.1,30.11,SW,219,12.3,18.5,63,0.00,,CLR,0.00,VWS V14.00,2013-11-14 03:09:00,
2013-11-13 21:14:00,33.4,22.0,30.11,SW,219,14.9,19.0,62,0.00,,CLR,0.00,VWS V14.00,2013-11-14 03:14:00,
2013-11-13 21:19:00,33.3,22.1,30.11,SSW,206,16.4,19.0,63,0.00,,CLR,0.00,VWS V14.00,2013-11-14 03:19:00,
2013-11-13 21:24:00,33.3,21.9,30.11,SSW,207,12.7,19.0,62,0.00,,CLR,0.00,VWS V14.00,2013-11-14 03:24:00,
2013-11-13 21:30:00,33.3,21.8,30.11,SW,218,12.0,18.1,62,0.00,,CLR,0.00,VWS V14.00,2013-11-14 03:30:00,
2013-11-13 21:35:00,33.4,21.7,30.11,WSW,239,14.3,18.1,62,0.00,,CLR,0.00,VWS V14.00,2013-11-14 03:35:00,
2013-11-13 21:40:00,33.4,21.9,30.11,SW,223,17.7,18.6,62,0.00,,CLR,0.00,VWS V14.00,2013-11-14 03:40:00,
2013-11-13 21:45:00,33.2,21.8,30.11,SW,223,10.0,18.6,63,0.00,,CLR,0.00,VWS V14.00,2013-11-14 03:45:00,
2013-11-13 21:50:00,33.0,22.0,30.11,SSW,195,15.4,17.7,63,0.00,,CLR,0.00,VWS V14.00,2013-11-14 03:50:00,
2013-11-13 21:55:00,33.2,21.9,30.11,SW,215,11.1,17.4,63,0.00,,CLR,0.00,VWS V14.00,2013-11-14 03:55:00,
2013-11-13 22:00:00,33.1,21.9,30.10,SW,219,16.9,17.4,63,0.00,,CLR,0.00,VWS V14.00,2013-11-14 04:00:00,
2013-11-13 22:05:00,33.0,21.9,30.10,SW,217,15.2,17.4,63,0.00,,CLR,0.00,VWS V14.00,2013-11-14 04:05:00,
2013-11-13 22:10:00,33.2,21.8,30.10,SW,215,13.0,18.4,63,0.00,,CLR,0.00,VWS V14.00,2013-11-14 04:10:00,
2013-11-13 22:15:00,33.0,21.9,30.10,SSW,209,13.2,18.6,63,0.00,,CLR,0.00,VWS V14.00,2013-11-14 04:15:00,
2013-11-13 22:20:00,32.8,22.0,30.10,SW,215,7.4,18.6,64,0.00,,CLR,0.00,VWS V14.00,2013-11-14 04:20:00,
2013-11-13 22:25:00,32.8,21.9,30.10,SW,229,11.3,15.7,64,0.00,,CLR,0.00,VWS V14.00,2013-11-14 04:25:00,
2013-11-13 22:30:00,32.8,22.0,30.10,SSW,201,14.1,14.9,64,0.00,,CLR,0.00,VWS V14.00,2013-11-14 04:30:00,
2013-11-13 22:35:00,32.7,21.9,30.10,SW,215,10.1,15.5,64,0.00,,CLR,0.00,VWS V14.00,2013-11-14 04:35:00,
2013-11-13 22:40:00,32.8,21.9,30.10,SW,225,8.3,18.4,64,0.00,,CLR,0.00,VWS V14.00,2013-11-14 04:40:00,
2013-11-13 22:45:00,32.8,21.8,30.10,SW,214,12.7,18.4,64,0.00,,CLR,0.00,VWS V14.00,2013-11-14 04:45:00,
2013-11-13 22:50:00,32.8,21.8,30.10,SW,222,11.7,16.0,64,0.00,,CLR,0.00,VWS V14.00,2013-11-14 04:50:00,
2013-11-13 22:56:00,32.6,21.9,30.10,SW,221,8.6,18.2,64,0.00,,CLR,0.00,VWS V14.00,2013-11-14 04:56:00,
2013-11-13 23:01:00,32.7,21.9,30.09,SW,222,11.3,18.2,64,0.00,,CLR,0.00,VWS V14.00,2013-11-14 05:01:00,
2013-11-13 23:02:00,32.6,22.0,30.09,SW,223,7.9,18.2,65,0.00,,CLR,0.00,VWS V14.00,2013-11-14 05:02:00,
2013-11-13 23:03:00,32.5,22.1,30.09,SW,218,10.6,18.2,65,0.00,,CLR,0.00,VWS V14.00,2013-11-14 05:03:00,
2013-11-13 23:05:00,32.6,21.9,30.09,SW,228,12.3,15.9,64,0.00,,CLR,0.00,VWS V14.00,2013-11-14 05:05:00,
2013-11-13 23:10:00,32.5,22.0,30.09,WSW,245,14.9,14.9,65,0.00,,CLR,0.00,VWS V14.00,2013-11-14 05:10:00,
2013-11-13 23:15:00,32.3,21.9,30.09,SW,223,6.2,14.9,65,0.00,,CLR,0.00,VWS V14.00,2013-11-14 05:15:00,
2013-11-13 23:20:00,32.3,22.0,30.09,SW,230,9.5,14.9,65,0.00,,CLR,0.00,VWS V14.00,2013-11-14 05:20:00,
2013-11-13 23:25:00,32.2,22.0,30.09,SW,235,9.6,12.7,66,0.00,,CLR,0.00,VWS V14.00,2013-11-14 05:25:00,
2013-11-13 23:30:00,32.2,21.9,30.09,SW,221,8.3,15.4,65,0.00,,CLR,0.00,VWS V14.00,2013-11-14 05:30:00,
2013-11-13 23:35:00,32.4,21.9,30.08,SW,220,13.5,15.4,65,0.00,,CLR,0.00,VWS V14.00,2013-11-14 05:35:00,
2013-11-13 23:40:00,32.5,21.9,30.08,SW,234,10.6,17.4,64,0.00,,CLR,0.00,VWS V14.00,2013-11-14 05:40:00,
2013-11-13 23:45:00,32.4,21.8,30.08,SW,221,10.8,17.4,64,0.00,,CLR,0.00,VWS V14.00,2013-11-14 05:45:00,
2013-11-13 23:50:00,32.5,21.7,30.08,SW,222,9.3,15.2,64,0.00,,CLR,0.00,VWS V14.00,2013-11-14 05:50:00,
2013-11-13 23:55:00,32.7,21.6,30.08,SW,215,9.3,15.2,63,0.00,,CLR,0.00,VWS V14.00,2013-11-14 05:55:00,